Location: Maignaut
(43.8886°N, 0.4051°E)
Time: 16:59:51
(UTC+00:00)

Cosmos 1602 - Pass Details

Date: 27 February 2020
Orbit: 514 x 534 km, 82.5° (Epoch: 05 April)

Event Time Altitude Azimuth Distance (km) Brightness Sun altitude
Rises 18:56:47 0° 183° (S) 2,651 7.3 -14.0°
Reaches altitude 10° 18:58:56 10° 181° (S) 1,764 6.4 -14.4°
Maximum altitude 19:02:47 74° 97° (E) 550 3.6 -15.1°
Drops below altitude 10° 19:06:39 10° 12° (NNE) 1,767 6.3 -15.7°
Sets 19:08:48 0° 11° (N) 2,657 7.2 -16.1°
